Regional Weather Roundup
Issued by NWS Portland, ME

Home | Current Version | Previous Version | Text Only | Print | Product List | Glossary On
Versions: 1 2 3 4 5 6 7 8 9 10 11 12 13 14 15 16 17 18 19 20 21 22 23 24 25 26 27 28 29 30 31 32 33 34 35 36 37 38 39 40 41 42 43 44 45 46 47 48 49 50
000
ASUS41 KGYX 271710
RWRGYX
WEATHER ROUNDUP FOR MAINE AND NEW HAMPSHIRE
NATIONAL WEATHER SERVICE GRAY ME
100 PM EDT THU JUL 27 2017

MEZ002-005-006-010-012-015-018-020-021-024-026-027-029-271800-
MAINE

CITY           SKY/WX    TMP DP  RH WIND       PRES   REMARKS
PORTLAND       CLOUDY    70  59  68 S12       29.90F
SANFORD          N/A     72  61  68 SW7       29.92F
WISCASSET      CLOUDY    71  59  65 VRB7      29.91F
ROCKLAND       CLOUDY    68  60  75 SW14G20   29.90F
FRYEBURG       CLOUDY    75  64  68 S5        29.88F
LEWISTONAUBURN CLOUDY    71  63  75 S10       29.89F
AUGUSTA        PTSUNNY   73  62  68 SW8       29.88F
WATERVILLE     CLOUDY    72  64  76 S8        29.85F
BANGOR         CLOUDY    67  63  87 S9        29.89F
GREENVILLE       N/A    N/A N/A N/A VRB6      29.86F
MILLINOCKET    CLOUDY    68  63  84 S8        29.87F
HOULTON        CLOUDY    69  61  75 SW12      29.84F
PRESQUE ISLE   LGT RAIN  65  61  87 S6        29.83S
FRENCHVILLE    CLOUDY    62  59  90 S8        29.80F
CARIBOU        LGT RAIN  65  61  87 SW7       29.81F
$$

NHZ002-005-008-009-011-012-014-271800-
NEW HAMPSHIRE

CITY           SKY/WX    TMP DP  RH WIND       PRES   REMARKS
PORTSMOUTH     CLOUDY    71  60  67 SW8       29.91F
ROCHESTER      CLOUDY    70  59  68 CALM      29.92S
NASHUA         CLOUDY    71  64  78 SW3       29.94F
MANCHESTER     CLOUDY    72  59  63 S6        29.92F
CONCORD        CLOUDY    69  60  73 S7        29.93F
LACONIA        PTSUNNY   71  62  73 SW10      29.91F
PLYMOUTH       CLOUDY    71  63  76 CALM      29.90F
BERLIN         CLOUDY    70  60  70 E3        29.89F
WHITEFIELD     CLOUDY    71  61  70 W7        29.89F
JAFFREY        LGT RAIN  66  63  90 SW8       29.98F
KEENE          LGT RAIN  65  62  90 S6        29.96F
LEBANON        CLOUDY    69  63  81 S7        29.90F
MT WASHINGTON  FOG       48  48 100 W33         N/A  VSB 0
$$

VTZ005-007-008-271800-
VERMONT

CITY           SKY/WX    TMP DP  RH WIND       PRES   REMARKS
ST JOHNSBURY     N/A     71  65  81 MISG      29.86F
MONTPELIER     RAIN      66  64  93 S6        29.94S FOG
BURLINGTON     LGT RAIN  68  64  87 S12       29.87F
$$

MAZ007-012-024-CTZ003-RIZ002-NYZ038-NYZ072-271800-
SOUTHERN NEW ENGLAND AND NY

CITY           SKY/WX    TMP DP  RH WIND       PRES   REMARKS
BOSTON         LGT RAIN  72  60  66 SW16G25   29.94F
WORCESTER      LGT RAIN  65  61  87 SW10      29.99F
NANTUCKET      MOSUNNY   67  62  84 S12       30.02F
PROVIDENCE     CLOUDY    74  62  66 SW6       29.98F
HARTFORD       LGT RAIN  69  65  86 S7        29.96F
ALBANY         LGT RAIN  67  64  90 S9        29.95F FOG
NEW YORK CITY  CLOUDY    77  67  71 SW9       29.96F
$$

ANZ081-ANZ082-ANZ150-NHZ014-MEZ023>029-271800-
COASTAL MARINE OBSERVATIONS

STATION/POSITION TIME  TEMP    WIND        PRES    WAVE
                       AIR SEA DIR/SP/G            HT/PER
                 (UTC) (F)     (DEG/KT/KT) (MB)    (FT/S)
MOUNT DESERT ROC 1700   60                 1013.6F
MATINICUS ROCK   1600   58     200/ 19/ 20 1013.4F
ISLE OF SHOALS   1600   67     210/ 15/ 16 1013.5F
JEFFREYS LEDGE   1636      63                N/A     3/ 4
CASHES LEDGE BUO 1550   67 61              1014.5    3/ 5
GEORGES BANK BUO 1550   62 64              1016.8    5/ 8
$$

.............KEY..............
   WCI - WIND CHILL
   TC  - TEMPERATURE IN CELSIUS
   VSB - VISIBILITY IN MILES
   HX  - HEAT INDEX
   FAIR- INDICATES FEW OR NO CLOUDS BELOW 12,000 FT, WITH NO
         SIGNIFICANT WEATHER AND/OR OBSTRUCTIONS TO VISIBILITY.






USA.gov is the U.S. government's official web portal to all federal, state and local government web resources and services.